timestamp,gas_concentrations,,corrected_fluxes_and_quality_flags,,,,,,,,,,storage_terms,,,turbulence,,,footprint,,
ISOdate,CO2_1_1_1,H2O_1_1_1,Tau_1_1_1,QcTau_1_1_1,H_1_1_1,QcH_1_1_1,LE_1_1_1, QcLE_1_1_1,Fc_1_1_1, QcFc_1_1_1,E_1_1_1, QcE_1_1_1,Sa_1_1_1,Sw_1_1_1,Sc_1_1_1,ustar_1_1_1,MO_length_1_1_1,ZL_1_1_1,Fetchmax_1_1_1,Fetch70_1_1_1,Fetch90_1_1_1
yyyymmddHHMM,[µmol+1mol_a-1],[mmol+1mol_a-1],[kg+1m-1s-2],[#],[W+1m-2],[#],[W+1m-2],[#],[µmol+1s-1m-2],[#],[mmol+1s-1m-2],[#],[W+1m-2],[W+1m-2],[µmol+1s-1m-2],[m+1s-1],[m],[#],[m],[m],[m]
201804190030,416.88962649814107,3.5349161648414293,0.32379845163638715,0,-8.7947869698173005,0,-1.6904088773165080,2,0.20708279981138783,1,-3.75424730974521850E-002,2,-9999.,-9999.,-9999.,0.51792137498727531,1326.4066521268635,1.62845986676596367E-002,93.402207718574331,170.76902481583014,255.84311736468939
201804190100,417.12817975870178,3.3598110277422109,8.14804866751598078E-002,1,-17.818330485078100,1,3.8880326206014417,1,0.18202722495983825,1,8.63364697566829931E-002,1,-3.8334037932518910,-6.4058044102185372,0.19378695132654197,0.25965532852344914,82.524641872165915,0.26174000286434801,67.558385870495258,123.51827601331701,185.05288544477153
201804190130,417.27149984814139,3.2794367833094240,8.87846201255342998E-002,0,-21.075089193015604,0,6.1715237346814549,0,-0.10146376872820650,0,0.13700027722258723,0,-7.7907233652951113,-2.9463687611498250,0.11662893526801875,0.27080249506293042,79.178991160951270,0.27279963640977128,90.965319891076561,166.31361666165429,249.16810406806994
201804190200,417.45532925801109,3.3203077235052443,3.51882161280283254E-002,0,-10.810160555436491,0,-0.44658703895651025,2,-1.15089737727183117E-002,0,-9.91096734172478705E-003,2,-6.8698256350324165,1.5011633338542716,0.14984361546971448,0.17034279603411065,38.437057275590533,0.56195769215967240,355.45386018855430,3678.0000000000000,-9999.
201804190230,417.52178644577668,3.2605277829269332,9.33252875485361816E-002,0,-24.129363781177759,0,8.8734285033479363,0,6.95965001628604529E-002,0,0.19683799203427166,0,-11.127130543860947,-2.2012410852489990,5.42839650702470200E-002,0.27711926827003519,74.160707626664873,0.29125935675718401,92.353108625785964,168.85093708121855,252.96947241689372
201804190300,417.84018820678369,2.8401893821283255,0.20177462070637167,0,-40.563249100175639,0,9.6450368882675370,1,0.83661083436998673,0,0.21392535370674251,1,-3.4203809480138627,-15.490722463757624,0.26025940481771298,0.40730063492589025,140.07288568376276,0.15420543308264170,100.98133909080319,184.62609420423604,276.60353239716977
201804190330,417.98362517166589,2.6334555142533853,0.18206591936035763,0,-40.073533209615647,0,15.119413339699671,1,0.27281104496750164,0,0.33538722375735336,1,3.0783691360329830,-7.6161617880904293,0.11721877877572162,0.38692481798219047,121.57094131847579,0.17767403760916123,100.68071085139950,184.07644990214681,275.78006507433474
201804190400,418.07155227306339,2.5197834322838477,0.15226267587334391,0,-40.242010092459367,0,7.7625331147220624,0,0.76370604429136835,0,0.17219613773446224,0,0.48404118658416434,-4.1883321399813500,7.18670795497590165E-002,0.35380508990729914,92.573465470204525,0.23332819928786316,94.472752108120559,172.72632139254168,258.77550430273732
201804190430,418.16374508690910,2.4689834154874215,0.13865787667180782,0,-37.895063101628160,0,4.3509847451515471,1,0.45945428231783469,0,9.64992912552869730E-002,1,-4.8294683596695691,-1.8740553714963766,7.54314048395330894E-002,0.33745160839874416,85.312035604694941,0.25318819140697302,96.264094217264585,176.00146608731987,263.68226786501771
201804190500,418.04286309145914,2.6556384546275460,0.12098931038316668,0,-30.103207179523679,0,-3.0010209294846910,1,0.19376488675590520,0,-6.65416513077926597E-002,1,-6.4977055172837508,6.8960651304390401,-9.90256737333786302E-002,0.31503770981210588,87.400388227755187,0.24713849032012225,92.809036818134743,169.68451922767096,254.21833037083439
201804190530,417.92594363103558,2.9038706480633167,0.20890563895100062,0,-39.465827192681935,0,-2.0868183630145811,2,0.35558542098397528,0,-4.62686090824877827E-002,2,-1.3207981074776354,9.1752143834587692,-9.58179141568674120E-002,0.41390213240807860,151.21257312731007,0.14284526447291102,106.42940419588804,194.58689478757682,291.52662676652812
201804190600,417.85189690731585,3.0813372134129309,0.20596885287351871,0,-38.778756650979744,0,-4.8543550339972734,1,0.14186658947206698,0,-0.10761596913142631,1,-3.2889954007612845,6.5660582269287424,-6.07350254471148154E-002,0.41081965698216633,150.52095010825761,0.14350161877442880,103.17373215778872,188.63448795859108,282.60883666616905
201804190630,417.80598296075641,3.1880555343043180,0.11235048266686636,0,-22.518162306372474,0,-3.6304964383254812,0,0.24038730004688569,0,-8.04762542308713053E-002,0,-2.5261169745598182,3.9513440251514202,-3.76835859401919437E-002,0.30332595287029879,104.35540498608577,0.20698496645075584,96.813017147093163,177.00507227303569,265.18585281221135
201804190700,417.69572872797403,3.3061153929293114,0.12969396850694767,0,-31.335698941781587,0,-4.2407844709346012,0,0.52584563717169952,0,-9.39904372033301683E-002,0,-3.7402023518870515,4.3751523277228026,-9.05573405377705920E-002,0.32578516180823325,92.924785112761128,0.23244605810806149,99.123490311466966,181.22935410513196,271.51459676162551
201804190730,417.64428019327033,3.3765099533511460,0.11232459878245862,0,-30.753718732557051,0,-2.8416184241346341,0,0.45490561047465317,0,-6.29695332170325528E-002,0,-4.2383704782890543,2.6114458412397554,-4.22940862247358149E-002,0.30305783182394153,76.230321104187695,0.28335181706080220,94.458616541794612,172.70047706899018,258.73678479660481
201804190800,417.65272054546642,3.4020233425861477,0.13149342475338371,0,-40.798568984845026,0,-1.7858871515701384,0,0.26646525386089825,0,-3.95759109612619023E-002,0,0.71054266584319370,0.94665496374584501,6.94002505384106946E-003,0.32786516275964145,72.776733212819764,0.29679815301458351,95.151628979098462,173.96752482936222,260.63505322797363
201804190830,417.72795787093986,3.3735746718296431,0.12126539257471600,0,-33.408456969348684,0,-0.15987985541824046,1,0.45980021703540319,0,-3.54222600193539834E-003,1,-5.5063696868140424,-1.0568883940693481,6.19274244968379892E-002,0.31469131289406971,78.596743330863234,0.27482054706862324,95.773657944075097,175.10479216330270,262.33888693145798
201804190900,417.62624904393482,3.3926743746711132,0.10183629323182097,0,-36.482695205417052,0,-3.2574765354524930,0,0.58144155177278245,0,-7.21651499581675293E-002,0,-2.1193386549632858,0.71012949768627787,-8.37752650560239925E-002,0.28828060834932973,55.345901451569866,0.39027280130039921,89.033742261406374,162.78207670952898,243.87721368895052
201804190930,417.54684043627407,3.4380950399094159,0.11172100531468573,0,-30.416563314408663,0,-1.0566722680639347,2,0.50801576398134607,0,-2.34104160484606555E-002,2,1.3199686586766646,1.6891319771188198,-6.54254165757951617E-002,0.30190785667745179,76.276799291185426,0.28317916064545862,90.375217379535869,165.23472106701476,247.55172186678197
201804191000,417.53582545249020,3.4671831917214484,0.11774076549551449,0,-38.417498192714113,0,-2.9240038308300504,0,0.48109835492363517,0,-6.47710823701709570E-002,0,-3.8358288214274698,1.0830155613033550,-9.08459661504605782E-003,0.30977857758901234,65.258811347065816,0.33098978596353468,95.220979390597122,174.09431949976107,260.82501474924516
201804191030,417.50141624203422,3.4776279840237749,8.81443984389963936E-002,0,-30.774282333339073,0,-2.4127309951077978,0,0.44459939367694634,0,-5.34369586997634066E-002,0,-4.1205383388358907,0.38936426105630118,-2.84095146741624935E-002,0.26788753804589432,52.701269747480964,0.40985729762293721,90.155685564914663,164.83334689380604,246.95039021536488
201804191100,417.43616709816786,3.4920215480000367,8.36594305684813938E-002,0,-35.657801633100867,0,-3.9221413505188361,0,0.11279587286908388,0,-8.68387472739600430E-002,0,-8.3597565909182805,0.53767522581100924,-5.39655751363365063E-002,0.26075782196648922,41.961224537742027,0.51476095461827809,90.654602619582747,165.74552639117258,248.31700132328740
201804191130,417.67786570011640,3.4807094929519322,9.56022967232866977E-002,0,-38.495574408178136,0,-2.4369206731853299,0,0.69299829082447095,0,-5.39396653710090337E-002,0,-7.2549767518791271,-0.42335585015132310,0.20021889009479502,0.27852787519994737,47.383874148071222,0.45585128671626857,87.817504843175101,160.55840680997292,240.54575097370690
201804191200,417.84269968974161,3.4681518875889239,0.16485619254089401,0,-33.917948381167363,0,-2.7918330219609797,0,1.0256876290885413,0,-6.17887623919029655E-002,0,-2.7533716605992877,-0.47046614749823135,0.13667477747782167,0.36557859249549635,121.64912628031941,0.17755984494476787,95.562617581882208,174.71894307334279,261.76081468378811
201804191230,418.06382871154949,3.5334392055662365,0.29667077789190460,0,16.454945633859502,1,-0.28543988289702649,2,1.0653876980881010,2,-6.31969820772728969E-003,2,9.4968280532960794,2.4421488982660526,0.18313474203165780,0.49071482789606385,-606.56414687415270,-3.56104133607512349E-002,106.07854630625994,193.94541466495210,290.56557264985332
201804191300,418.31270878430496,3.6256909703886930,0.28496773693108424,0,40.902663510457671,0,1.9056438092806323,0,0.74314390060059909,0,4.22282568360870317E-002,0,22.229452265528096,3.4369811967292807,0.20547265090438899,0.48170125351878640,-230.86854806272382,-9.35597342351353056E-002,106.83576985513710,195.32986081636378,292.63972526378728
201804191330,418.36451156067415,3.6512161962958114,0.27742567251641270,0,70.665497968966619,0,8.4703763778932792,1,1.2994649596680437,0,0.18788658328798988,1,25.153641586583102,0.94663407606105154,4.26146215647467477E-002,0.47613981828848728,-129.08360478091043,-0.16733341183538378,94.840705922244524,173.39905831761030,259.78338680520818
201804191400,418.13022669088883,3.4777012624675301,0.35789491033713511,0,114.38427902506783,0,10.271588557777605,0,4.15447647126123698E-002,0,0.22804300456893478,0,22.407600649876404,-6.4093340797533189,-0.19213188008308266,0.54162646614532084,-117.40952133028176,-0.18397145099704126,106.19923036106032,194.16606360733232,290.89614497304052
201804191430,418.27299820207122,3.3416615034766082,0.49204691435296166,1,211.81713822291550,0,13.890919669679592,0,8.00858511922353244E-002,0,0.30872757872240519,0,26.872752039808006,-5.0000756724148330,0.11662635610809075,0.63630334756301410,-102.81667196002741,-0.21008266060583589,121.05965658651921,221.33566223732856,331.60115466986502
201804191500,418.52117704396028,3.2832119312785659,0.41905230703727664,1,209.16790108731726,0,26.068357944586126,0,1.2702779983851489,0,0.57990304904557666,0,22.844805990125053,-2.1390134985330542,0.20204060419769165,0.58820794603237669,-82.254641621857402,-0.26259916248009357,117.50977947054157,214.84535469408431,321.87749128120316
201804191530,418.91169804776996,3.1249709387388087,0.63281924590508432,1,289.45876738168442,0,33.092166646512595,0,1.0161260073885181,0,0.73713028588529261,0,32.997961185401508,-5.7549406260062526,0.31636271823228196,0.72458627155511479,-111.11992920693055,-0.19438457308387855,118.20303141562728,216.11284035106863,323.77641576149244
201804191600,418.94353515966219,2.8552017533731888,0.61764724081968958,0,251.95870433888749,0,26.974266097688503,0,1.4800713972437816,0,0.60125382539036631,0,16.471746270814563,-9.7816167276144057,2.57312082841925638E-002,0.71664740312194430,-123.52087585592554,-0.17486922635809504,118.80238482446593,217.20864953639119,325.41813760368331
201804191630,418.86930317672596,2.6531333113505688,0.43550979186984506,1,229.20506175556409,0,31.463426915638149,0,0.33955369526807111,0,0.70175591286352101,0,15.440990556829227,-7.3062586155223448,-5.98642666963059636E-002,0.60241057522601582,-80.659004709565394,-0.26779403090549725,111.46047244971666,203.78529213249675,305.30750215667229
201804191700,418.98021245454521,2.5241327162708216,0.59427247337144351,0,253.89005031758109,0,45.006581731002413,1,0.76777774516844488,0,1.0046061981898546,1,19.231246352952500,-4.6475704291274260,8.91911918690035527E-002,0.70467211693358289,-116.56091107105971,-0.18531083706811341,113.98902985636910,208.40830151388008,312.23361263259085
201804191730,418.90061390254567,2.3705041077090483,0.97947219727537227,0,394.86497622454090,0,70.441606627053304,0,2.4112937500473066,0,1.5732773286306285,0,14.461406755909394,-5.5200808875370182,-6.38784756065396281E-002,0.90558676648520997,-159.07939884200539,-0.13578125236349872,122.40850304483655,223.80178375564608,335.29585409048275
201804191800,419.03208935196670,2.1332588631508234,0.70075581067969972,0,259.96264338692515,0,31.246443253862605,0,0.89846831374907765,0,0.69809865040791652,0,7.8991825073541753,-8.5119223824424086,0.10538796340115748,0.76638921092651979,-146.45758044522569,-0.14748297721658921,123.56440561513570,225.91514231036945,338.46205030980809
201804191830,418.89273979756359,2.0362289769599040,0.46896122578519067,1,263.40008545518060,0,40.575941587142438,0,0.82844948057529955,0,0.90685392313940927,0,8.5804346219181902,-3.4754490658962149,-0.11155260589039069,0.62735393916483573,-79.285112290501985,-0.27243450095469673,105.50348023808723,192.89401048441690,288.99037759648519
201804191900,419.00854786451703,1.9594578693533107,0.74139522253783263,0,271.78520176317596,0,22.318647173124116,1,1.0658011803969547,0,0.49904808113486732,1,11.554617452216597,-2.7442225721037294,9.25624543625953450E-002,0.78940848023548538,-153.11306582093388,-0.14107221930531555,114.28611718297260,208.95147189805434,313.04738084668696
201804191930,418.85396783191447,1.6856073655781927,0.71932692951631261,0,335.77838049587348,0,85.924252552344541,1,2.0437564404617596,0,1.9217652722212584,1,6.1725009254762337,-9.7797673151412674,-0.12346758413690660,0.77779617115722188,-118.56108817783435,-0.18218456267541444,116.25718226422897,212.55520750555593,318.44643347333096
201804192000,418.89766372949060,1.5442173318444967,0.35307688494614581,1,206.37102732318738,0,14.479075920047297,1,-0.15290684861195736,0,0.32387169444300867,1,2.6662466213427050,-5.0464798246430531,3.48853075561120912E-002,0.54503513585479735,-66.374159706447600,-0.32542784866174018,111.40578302105720,203.68530241460863,305.15769933876373
201804192030,419.14854403540164,1.7619205506318081,0.29762654051287613,0,219.60544015716675,0,0.99515331989628264,2,0.82693631904887432,0,2.22725902242265315E-002,2,13.898987184870736,7.7492511951313192,0.19986750450655549,0.50096421898938914,-48.436092876331593,-0.44594843880470986,100.90778175695353,184.49160793805046,276.40204746381750
201804192100,418.79984787945887,1.8467768834198188,0.26765361107905072,1,156.52653698492119,0,-7.0852318404206107,2,0.18006059943766051,0,-0.15858725559976528,2,1.8712277381945144,3.0193641813494216,-0.27771070266192144,0.47514863547963843,-57.982204007370399,-0.37252809495227746,97.676257038414604,178.58335011061371,267.55040061278027
201804192130,418.97747351239877,1.9929889841616171,0.47201034538110109,0,155.82408378474153,0,22.031344543964764,1,0.59864374980035340,0,0.49326614032890437,1,7.0363318629737091,5.1950864468189115,0.14130430801806823,0.63136216454043770,-136.64304912176911,-0.15807609782442147,114.59263033051775,209.51187568912133,313.88696784464634
201804192200,419.01529365469867,2.0112632264685262,0.48644753820537329,0,139.83125226174016,0,21.082783388921516,0,0.83459692417356290,0,0.47202853048260546,0,-1.31723719945550770E-012,0.64935503713662102,3.00888989414392904E-002,0.64092264137970367,-159.30306174187263,-0.13559061429088948,110.82306559337330,202.61990910861098,303.56154602630045
201804192230,418.89951682903177,1.9561636972128169,0.52304770137576950,0,148.72630618635893,0,23.509869135071657,0,1.4200215189264451,0,0.52635080072639040,0,-0.84975094972371845,-1.9581519813870840,-9.21181531353105210E-002,0.66455894294595574,-166.95861517489635,-0.12937337781205882,128.37607238095595,234.71240376069449,351.64195103331872
201804192300,419.09095782088889,1.9223397770562525,0.29084061318086279,0,72.576087397764297,0,22.232162521725503,0,1.0299637949785629,0,0.49759943029220660,0,-7.0927522591741461,-1.2039283523290085,0.15251403222633581,0.49523572105813118,-141.60911428034674,-0.15253255491195289,104.90806705528540,191.80540528896026,287.35944864385232
201804192330,419.07900598269242,1.7566538741653559,0.30285418225404304,0,34.796757124869707,0,2.8942576533358428,2,1.3145336911400229,2,6.47632774686955764E-002,2,-5.9622754550421959,-5.9055165881329419,-9.53232121595500893E-003,0.50506010254127598,-313.32337792135007,-6.89383605631303936E-002,116.60774256669012,213.19614354392888,319.40667245265149
201804200000,419.15927439139074,1.7236757019527897,0.20003383586798698,0,22.843015417650296,0,13.097513499875618,0,0.83287086708954039,1,0.29298189194312191,0,-7.8307588544309237,-1.1773476778670362,6.41024646224884476E-002,0.41019677480008832,-255.71372680851829,-8.44694583649565206E-002,101.93254242630330,186.36519727227429,279.20902569916205
